Regional Weather Roundup
Issued by NWS

Home | Current Version | Previous Version | Text Only | Print | Product List | Glossary Off
Versions: 1 2 3 4 5 6 7 8 9 10 11 12 13 14 15 16 17 18 19 20 21 22 23 24 25 26 27 28 29 30 31 32 33 34 35 36 37 38 39 40 41 42 43 44 45 46 47 48 49 50

000
ASUS44 KMEG 021610
RWRTN
TENNESSEE HOURLY STATE WEATHER ROUNDUP
NATIONAL WEATHER SERVICE MEMPHIS TN
1100 AM CDT MON MAY 02 2016

TNZ002-004-019-021-049-052-054-088>092-021700-
WEST TENNESSEE

CITY           SKY/WX    TMP DP  RH WIND       PRES   REMARKS
MEMPHIS INTL   CLOUDY    59  56  89 N8        30.00R
NWS MEMPHIS      N/A     57 N/A N/A MISG        N/A
JACKSON        RAIN      55  53  93 E7        30.00F FOG
DYERSBURG      PTSUNNY   57  54  88 E6          N/A
UNION CITY     MOSUNNY   57  54  88 E5        30.02F
LEXINGTON      CLOUDY    54  54 100 E7        30.04S
$$

TNZ008-025-027-028-033-062-065-066-021700-
NORTH MIDDLE TENNESSEE

CITY           SKY/WX    TMP DP  RH WIND       PRES   REMARKS
NASHVILLE      LGT RAIN  62  53  72 NW12      30.02R
CLARKSVILLE    LGT RAIN  57  54  89 SW8       30.02S
SMYRNA         CLOUDY    67  56  67 N3        30.01R
COOKEVILLE     CLOUDY    70  66  88 SW3       29.99S
CROSSVILLE     PTSUNNY   71  61  70 S8        30.02F
$$

TNZ061-075-076-078-094-096-097-021700-
SOUTH MIDDLE TENNESSEE

CITY           SKY/WX    TMP DP  RH WIND       PRES   REMARKS
FAYETTEVILLE   PTSUNNY   73  66  78 S8        30.00R
TULLAHOMA      PTSUNNY   72  66  83 SW7       30.00S
WINCHESTER     MOSUNNY   77  63  61 SW6       29.99S
MCMINNVILLE    MOSUNNY   72  66  83 W6        30.00S
COLUMBIA       CLOUDY   N/A N/A N/A NW6       30.01R
SHELBYVILLE    CLOUDY    72  68  88 NW3       30.01R
$$

TNZ017-018-042-046-047-021700-
NORTHEAST TENNESSEE

CITY           SKY/WX    TMP DP  RH WIND       PRES   REMARKS
TRI CITIES     PTSUNNY   75  59  57 W8        30.02F
$$

TNZ012-013-036-069-073-074-021700-
CENTRAL EAST TENNESSEE

CITY           SKY/WX    TMP DP  RH WIND       PRES   REMARKS
KNOXVILLE      CLOUDY    75  61  61 SW9       29.99F
OAK RIDGE      CLOUDY    74  61  63 VRB3      30.01F
GATLINBURG     MOSUNNY   75  59  57 CALM      29.98F
MORRISTOWN     PTSUNNY   75  63  64 N5        30.00F
$$

TNZ083-085-099-021700-
SOUTHEAST TENNESSEE

CITY           SKY/WX    TMP DP  RH WIND       PRES   REMARKS
CHATTANOOGA    PTSUNNY   74  63  68 SW5       30.00F
$$

SKY/WX REPORTED AS FAIR MEANS FEW OR NO CLOUDS BELOW
12 THOUSAND FEET.





USA.gov is the U.S. government's official web portal to all federal, state and local government web resources and services.